MPEC 2006-W14 : 2006 VB45

The following Minor Planet Electronic Circular may be linked-to from your own Web pages, but must not otherwise be redistributed electronically.


Read MPEC 2006-W13 Read MPEC 2006-W15


M.P.E.C. 2006-W14                                Issued 2006 Nov. 17, 00:52 UT

     The Minor Planet Electronic Circulars contain information on unusual
         minor planets and routine data on comets.  They are published
   on behalf of Commission 20 of the International Astronomical Union by the
          Minor Planet Center, Smithsonian Astrophysical Observatory,
                          Cambridge, MA 02138, U.S.A.

             Prepared using the Tamkin Foundation Computer Network

                              MPC@CFA.HARVARD.EDU
          URL http://cfa-www.harvard.edu/iau/mpc.html  ISSN 1523-6714

                                   2006 VB45

Observations:
     K06V45B* C2006 11 15.27277 04 16 21.76 +30 48 14.4          18.3   EW014704
     K06V45B  C2006 11 15.28546 04 16 26.82 +30 43 23.5          18.2   EW014704
     K06V45B  C2006 11 15.29834 04 16 32.06 +30 38 25.9          18.3   EW014704
     K06V45B  C2006 11 15.31225 04 16 37.73 +30 33 06.0          18.4   EW014704
     K06V45B  C2006 11 15.32503 04 16 43.00 +30 28 09.8          18.4   EW014704
     K06V45B  C2006 11 16.29192 04 24 27.05 +24 14 52.7          18.9   EW014704
     K06V45B  C2006 11 16.30367 04 24 31.20 +24 10 22.0          19.1   EW014704
     K06V45B  C2006 11 16.31540 04 24 35.29 +24 05 52.1          18.7   EW014704
     K06V45B  C2006 11 16.32732 04 24 39.45 +24 01 17.8          18.7   EW014704
     K06V45B  C2006 11 16.33905 04 24 43.52 +23 56 46.8          19.0   EW014704
     K06V45B  C2006 11 16.93378 04 29 05.34 +20 08 41.9                 EW014J95
     K06V45B  C2006 11 16.93450 04 29 05.61 +20 08 25.4                 EW014J95
     K06V45B  C2006 11 16.93530 04 29 05.89 +20 08 07.4          18.6 R EW014J95
     K06V45B  C2006 11 16.94168 04 29 05.67 +20 05 52.9          18.2 R EW014113
     K06V45B  C2006 11 16.94208 04 29 05.65 +20 05 52.9                 EW014246
     K06V45B  C2006 11 16.94210 04 29 05.82 +20 05 43.5          18.3 R EW014113
     K06V45B  C2006 11 16.94251 04 29 05.97 +20 05 34.2          18.3 R EW014113
     K06V45B  C2006 11 16.94292 04 29 06.11 +20 05 25.0          18.2 R EW014113
     K06V45B  C2006 11 16.94329 04 29 06.12 +20 05 25.8          16.8 R EW014246
     K06V45B  C2006 11 16.94334 04 29 06.25 +20 05 15.8          18.3 R EW014113
     K06V45B  C2006 11 16.94354 04 29 06.21 +20 05 19.0                 EW014246
     K06V45B  C2006 11 16.94444 04 29 06.45 +20 04 59.5          16.6 R EW014246

Observer details:
113 Volkssternwarte Drebach, Schoenbrunn.  Observer G. Lehmann.  0.5-m f/5
    reflector + CCD.
246 Klet Observatory-KLENOT.  Observers J. Ticha, M. Tichy.  Measurer M. Tichy.
    1.06-m KLENOT Telescope + CCD.
704 Lincoln Laboratory ETS, New Mexico.  Observers M. Bezpalko, D. Torres,
    R. Kracke, G. Spitz, J. Kistler.  Measurers J. Stuart, S. Scruggs.  1.0-m
    f/2.15 reflector + CCD.
J95 Great Shefford.  Observer P. Birtwhistle.  0.40-m f/6.0 Schmidt-Cassegrain
    + CCD.

Orbital elements:
2006 VB45                                                Earth MOID = 0.0329 AU
Epoch 2006 Sept. 22.0 TT = JDT 2454000.5                MPC
M 325.71252              (2000.0)            P               Q
n   0.73177266     Peri.  170.87991     +0.69827782     -0.69423962
a   1.2196033      Node   234.59091     +0.64252357     +0.71531100
e   0.1631563      Incl.   12.36056     +0.31554959     +0.07975910
P   1.35           H   24.6           G   0.15           U   7
Residuals in seconds of arc
061115 704  1.2+  0.3+    061116 704  0.6+  0.2+    061116 113  0.2+  0.6-
061115 704  0.8-  0.6+    061116 704  0.6+  0.2-    061116 113  0.2+  0.6-
061115 704  1.0-  0.8-    061116 J95  0.1-  0.1+    061116 246  0.1+  1.3+
061115 704  0.7-  0.2+    061116 J95  0.1+  0.2-    061116 113  0.1+  0.3-
061115 704  0.6+  0.5-    061116 J95  0.0   0.2-    061116 246  0.1+  0.2+
061116 704  0.2-  0.8+    061116 113  0.1-  0.6-    061116 246  0.8-  1.0+
061116 704  0.3+  0.1-    061116 246  0.8-  1.2+
061116 704  0.3+  0.2-    061116 113  0.0   0.5-

Ephemeris:
2006 VB45                a,e,i = 1.22, 0.16, 12                  q = 1.0206
Date    TT    R. A. (2000) Decl.     Delta      r     Elong.  Phase     V
2006 11 11    03 26.59   +55 17.3    0.0387   1.021   141.7    36.9    19.1
2006 11 13    03 53.54   +44 49.1    0.0357   1.021   151.6    27.4    18.6
2006 11 15    04 13.90   +32 33.6    0.0343   1.022   161.3    18.1    18.3
2006 11 17    04 29.42   +19 46.4    0.0348   1.022   165.5    14.0    18.2
2006 11 19    04 41.42   +07 54.3    0.0371   1.023   160.5    18.8    18.5
2006 11 21    04 50.81   -02 08.3    0.0409   1.025   152.7    26.2    18.9
2006 11 23    04 58.27   -10 10.2    0.0459   1.026   145.6    32.9    19.3
2006 11 25    05 04.26   -16 26.2    0.0517   1.027   139.8    38.3    19.8
2006 11 27    05 09.14   -21 17.8    0.0580   1.029   135.3    42.4    20.1
2006 11 29    05 13.15   -25 04.8    0.0648   1.031   131.7    45.6    20.5
2006 12 01    05 16.48   -28 02.8    0.0718   1.033   128.8    48.1    20.8
2006 12 03    05 19.27   -30 23.5    0.0789   1.035   126.6    49.9    21.0
2006 12 05    05 21.61   -32 15.4    0.0862   1.037   124.7    51.4    21.3
2006 12 07    05 23.59   -33 44.8    0.0936   1.039   123.2    52.4    21.5
2006 12 09    05 25.26   -34 56.0    0.101    1.042   122.0    53.2    21.7
2006 12 11    05 26.69   -35 52.4    0.109    1.045   121.0    53.8    21.8
2006 12 13    05 27.91   -36 36.5    0.116    1.048   120.2    54.3    22.0
2006 12 15    05 28.97   -37 10.3    0.124    1.051   119.6    54.5    22.2
2006 12 17    05 29.91   -37 35.1    0.131    1.054   119.1    54.7    22.3
2006 12 19    05 30.77   -37 52.2    0.138    1.057   118.6    54.8    22.4
2006 12 21    05 31.56   -38 02.5    0.146    1.061   118.3    54.8    22.5

Timothy B. Spahr             (C) Copyright 2006 MPC           M.P.E.C. 2006-W14

Read MPEC 2006-W13 Read MPEC 2006-W15


Our Web policy. Index to the CBAT/MPC/ICQ pages.

MPC

Valid HTML 4.01!